SPACEBEE-18 (46304 NORAD) Tracking and Keplerian Element Data

This shows tracking and keplerian element data for the satellite.

Feedback or suggestion? Click here.




ElementValue
Catalog46304
NameSPACEBEE-18
Epoch Orbit307
Epoch Day268.14230771
Epoch Year2020
RAAN340.9054
Inclination97.5181
Eccentricity0.0001573
Argument of Perigee128.1801
Mean Anonmoly231.9571
Mean Motion15.10654912
Decay Rate1.726E-05
L11 46304U 20061AJ 20268.14230771 .00001726 00000-0 10818-3 0 9996
L22 46304 97.5181 340.9054 0001573 128.1801 231.9571 15.10654912 3074

Live tracking and technical data element details for SPACEBEE-18 (NORAD 46304). SPACEBEE-18 can be tracked NOW for your location showing map with azimuth and elevation plus other details from your city location.

Track the satellite on the map from your city or location and see movement details for azimuth, elevation, latitude, longitude, range, height, and movement on the map or in text.







IsCatalogInMostPopularTable: catalog: 46304, numindb: 2
Update: records affected: 1



GetName: 46304 SPACEBEE-18

Hit Count: updated at: Mon, 28 Sep 2020 15:57:54 GMT